Weather History for KRUE - January, 2013

Change the Weather History Date:

Saturday, January 19, 2013

  Actual Average (KHOT) Record (KHOT)
Temperature  
Mean Temperature 46 °F -  
Max Temperature 64 °F 49 °F 75 °F (1951)
Min Temperature 28 °F 31 °F 7 °F (1984)
Degree Days  
Heating Degree Days 19    
Moisture  
Dew Point 31 °F    
Average Humidity 64    
Maximum Humidity 92    
Minimum Humidity 34    
Precipitation  
Precipitation 0.00 in - - ()
Sea Level Pressure  
Sea Level Pressure 30.21 in    
Wind  
Wind Speed 2 mph (SSW)    
Max Wind Speed 10 mph    
Max Gust Speed 16 mph    
Visibility 10 miles    
Events      
Averages and records for this station are not official NWS values.
T = Trace of Precipitation, MM = Missing Value Source: NWS Daily Summary

Daily Weather History Graph

Daily Weather History Graph

Search for Another Location

Airport or City:

Trip Planner

Search our weather history database for the weather conditions in past years. The results will help you decide how hot, cold, wet, or windy it might be!

Date:

Astronomy

Jan. 19, 2013 Rise Set
Actual Time 7:19 AM CST 5:27 PM CST
Civil Twilight 6:51 AM CST 5:55 PM CST
Nautical Twilight 6:20 AM CST 6:26 PM CST
Astronomical Twilight 5:50 AM CST 6:56 PM CST
Moon 11:51 AM CST (1/19) 12:57 AM CST (1/19)
Length of Visible Light 11h 03m
Length of Day
10h 08m
First Quarter, 57% of the Moon is Illuminated
Jan 19
First Quarter
Jan 26
Full
Feb 3
Last Quarter
Feb 10
New
Feb 17
First Quarter

Hourly Weather History & Observations

Time (CST) Temp. Windchill Dew Point Humidity Pressure Visibility Wind Dir Wind Speed Gust Speed Precip Events Conditions
12:53 AM 35.1 °F 32.2 °F 27.0 °F 72% 30.28 in 10.0 mi SE 3.5 mph - N/A   Clear
1:53 AM 30.9 °F - 26.1 °F 82% 30.28 in 10.0 mi Calm Calm - N/A   Clear
2:53 AM 28.9 °F - 26.1 °F 89% 30.27 in 10.0 mi Calm Calm - N/A   Clear
3:53 AM 28.9 °F - 25.0 °F 85% 30.26 in 10.0 mi Calm Calm - N/A   Clear
4:53 AM 28.9 °F - 25.0 °F 85% 30.25 in 10.0 mi Calm Calm - N/A   Clear
5:53 AM 28.0 °F - 26.1 °F 92% 30.25 in 10.0 mi Calm Calm - N/A   Clear
6:53 AM 28.0 °F - 25.0 °F 88% 30.25 in 10.0 mi Calm Calm - N/A   Clear
7:53 AM 28.0 °F - 25.0 °F 88% 30.25 in 10.0 mi Calm Calm - N/A   Clear
8:53 AM 39.9 °F - 30.0 °F 68% 30.26 in 10.0 mi Calm Calm - N/A   Clear
9:53 AM 48.0 °F - 28.9 °F 48% 30.27 in 10.0 mi Calm Calm - N/A   Clear
10:53 AM 52.0 °F - 30.9 °F 45% 30.25 in 10.0 mi Variable 3.5 mph - N/A   Clear
11:53 AM 55.9 °F - 34.0 °F 44% 30.22 in 10.0 mi South 3.5 mph - N/A   Clear
12:53 PM 61.0 °F - 37.0 °F 41% 30.16 in 10.0 mi South 8.1 mph 16.1 mph N/A   Clear
1:53 PM 64.0 °F - 37.0 °F 37% 30.14 in 10.0 mi SW 6.9 mph - N/A   Clear
2:53 PM 64.0 °F - 36.0 °F 35% 30.12 in 10.0 mi SW 10.4 mph 16.1 mph N/A   Clear
3:53 PM 64.0 °F - 35.1 °F 34% 30.11 in 10.0 mi Variable 6.9 mph - N/A   Clear
4:53 PM 63.0 °F - 34.0 °F 34% 30.12 in 10.0 mi SW 5.8 mph - N/A   Clear
5:53 PM 55.0 °F - 37.0 °F 51% 30.13 in 10.0 mi South 3.5 mph - N/A   Clear
6:53 PM 54.0 °F - 37.9 °F 55% 30.14 in 10.0 mi South 5.8 mph - N/A   Clear
7:53 PM 52.0 °F - 37.0 °F 57% 30.16 in 10.0 mi SSW 3.5 mph - N/A   Clear
8:53 PM 42.1 °F - 36.0 °F 79% 30.18 in 10.0 mi Calm Calm - N/A   Clear
9:53 PM 39.9 °F - 34.0 °F 79% 30.19 in 10.0 mi Calm Calm - N/A   Clear
11:53 PM 36.0 °F - 33.1 °F 89% 30.20 in 10.0 mi Calm Calm - N/A   Clear